• Em Portugal
  • Lista de países
  • Para 7 dias
  • Temperatura da água
  • Mapas de satélite
  • Mapa do tempo
  • Widgets de tempo
  • user-avatar
    Iniciar Sessão

    Previsão horária em Katmandu

    Hoje, 20 Setembro, Quinta-feira

    Tempo Temperatura Precipitação Vento Pressão Humidade
    00:00 +22°C° 0.6 mm 1 m/s 651 mmHg 81%
    01:00 +22°C° 0.5 mm 1 m/s 651 mmHg 79%
    02:00 +22°C° 0.5 mm 1 m/s 651 mmHg 78%
    03:00 +21°C° 0.5 mm 1 m/s 651 mmHg 76%
    04:00 +21°C° 0 mm 1 m/s 651 mmHg 74%
    05:00 +20°C° 0 mm 2 m/s 651 mmHg 72%
    06:00 +20°C° 0 mm 2 m/s 651 mmHg 69%
    07:00 +23°C° 0 mm 1 m/s 652 mmHg 64%
    08:00 +26°C° 0 mm 1 m/s 652 mmHg 58%
    09:00 +28°C° 0 mm 1 m/s 653 mmHg 53%
    10:00 +29°C° 0.2 mm 2 m/s 653 mmHg 51%
    11:00 +30°C° 0.2 mm 2 m/s 653 mmHg 48%
    12:00 +31°C° 0 mm 2 m/s 654 mmHg 47%
    13:00 +30°C° 0.3 mm 2 m/s 653 mmHg 48%
    14:00 +30°C° 0.3 mm 2 m/s 653 mmHg 50%
    15:00 +30°C° 0.3 mm 3 m/s 652 mmHg 52%
    16:00 +28°C° 0.3 mm 2 m/s 652 mmHg 62%
    17:00 +26°C° 0.3 mm 2 m/s 651 mmHg 71%
    18:00 +25°C° 0.3 mm 1 m/s 651 mmHg 80%
    19:00 +24°C° 1.2 mm 1 m/s 651 mmHg 83%
    20:00 +23°C° 1.2 mm 1 m/s 652 mmHg 87%
    21:00 +22°C° 1.2 mm 1 m/s 652 mmHg 90%
    22:00 +22°C° 0.7 mm 1 m/s 652 mmHg 89%
    23:00 +20°C° 0.7 mm 0 m/s 652 mmHg 88%

    Amanhã, 21 Setembro, Sexta-feira

    Tempo Temperatura Precipitação Vento Pressão Humidade
    00:00 +20°C° 0.7 mm 0 m/s 652 mmHg 88%
    01:00 +20°C° 1 mm 0 m/s 652 mmHg 88%
    02:00 +20°C° 1 mm 0 m/s 652 mmHg 89%
    03:00 +20°C° 1 mm 0 m/s 651 mmHg 90%
    04:00 +19°C° 1.6 mm 0 m/s 651 mmHg 90%
    05:00 +21°C° 1.6 mm 1 m/s 652 mmHg 91%
    06:00 +21°C° 1.6 mm 1 m/s 652 mmHg 91%
    07:00 +22°C° 0.9 mm 1 m/s 652 mmHg 88%
    08:00 +23°C° 0.9 mm 1 m/s 653 mmHg 86%
    09:00 +23°C° 0.9 mm 1 m/s 654 mmHg 83%
    10:00 +24°C° 0.5 mm 1 m/s 654 mmHg 77%
    11:00 +25°C° 0.5 mm 1 m/s 654 mmHg 71%
    12:00 +26°C° 0.5 mm 1 m/s 654 mmHg 65%
    13:00 +27°C° 0.3 mm 1 m/s 654 mmHg 62%
    14:00 +28°C° 0.3 mm 1 m/s 653 mmHg 60%
    15:00 +29°C° 0.3 mm 2 m/s 653 mmHg 57%
    16:00 +27°C° 0.6 mm 2 m/s 653 mmHg 65%
    17:00 +26°C° 0.6 mm 1 m/s 652 mmHg 72%
    18:00 +24°C° 0.6 mm 1 m/s 652 mmHg 79%
    19:00 +24°C° 1.6 mm 1 m/s 653 mmHg 82%
    20:00 +23°C° 1.6 mm 1 m/s 653 mmHg 84%
    21:00 +22°C° 1.6 mm 1 m/s 653 mmHg 87%
    22:00 +22°C° 1 mm 1 m/s 653 mmHg 87%
    23:00 +22°C° 1 mm 1 m/s 653 mmHg 87%

    Depois de amanhã, 22 Setembro, Sábado

    Tempo Temperatura Precipitação Vento Pressão Humidade
    00:00 +22°C° 1 mm 1 m/s 653 mmHg 87%
    01:00 +21°C° 0.8 mm 1 m/s 653 mmHg 87%
    02:00 +21°C° 0.8 mm 1 m/s 653 mmHg 87%
    03:00 +19°C° 0.8 mm 0 m/s 653 mmHg 87%
    04:00 +19°C° 0.9 mm 0 m/s 653 mmHg 88%
    05:00 +19°C° 0.9 mm 0 m/s 653 mmHg 88%
    06:00 +19°C° 0.9 mm 0 m/s 653 mmHg 88%
    07:00 +22°C° 0.8 mm 1 m/s 654 mmHg 87%
    08:00 +22°C° 0.8 mm 1 m/s 654 mmHg 85%
    09:00 +23°C° 0.8 mm 1 m/s 655 mmHg 83%
    10:00 +24°C° 0.6 mm 1 m/s 655 mmHg 81%
    11:00 +24°C° 0.6 mm 1 m/s 655 mmHg 79%
    12:00 +25°C° 0.6 mm 1 m/s 655 mmHg 77%
    13:00 +25°C° 0.4 mm 1 m/s 654 mmHg 76%
    14:00 +25°C° 0.4 mm 1 m/s 654 mmHg 74%
    15:00 +25°C° 0.4 mm 1 m/s 653 mmHg 73%
    16:00 +25°C° 0.2 mm 1 m/s 653 mmHg 77%
    17:00 +22°C° 0.2 mm 0 m/s 653 mmHg 81%
    18:00 +21°C° 0.2 mm 0 m/s 652 mmHg 84%
    19:00 +21°C° 0.2 mm 0 m/s 653 mmHg 85%
    20:00 +20°C° 0.2 mm 0 m/s 653 mmHg 85%
    21:00 +22°C° 0.2 mm 1 m/s 654 mmHg 86%
    22:00 +21°C° 0 mm 1 m/s 654 mmHg 85%
    23:00 +21°C° 0 mm 1 m/s 654 mmHg 84%

    23 Setembro, Domingo

    Tempo Temperatura Precipitação Vento Pressão Humidade
    00:00 +21°C° 0 mm 1 m/s 654 mmHg 83%
    01:00 +21°C° 0.1 mm 1 m/s 653 mmHg 82%
    02:00 +21°C° 0.1 mm 1 m/s 653 mmHg 81%
    03:00 +21°C° 0.1 mm 1 m/s 653 mmHg 81%
    04:00 +21°C° 0 mm 1 m/s 653 mmHg 81%
    05:00 +20°C° 0 mm 1 m/s 653 mmHg 81%
    06:00 +20°C° 0 mm 1 m/s 653 mmHg 81%
    07:00 +22°C° 0 mm 1 m/s 654 mmHg 77%
    08:00 +24°C° 0 mm 1 m/s 654 mmHg 72%
    09:00 +26°C° 0 mm 1 m/s 655 mmHg 67%
    10:00 +27°C° 0 mm 1 m/s 655 mmHg 64%
    11:00 +28°C° 0 mm 2 m/s 655 mmHg 60%
    12:00 +29°C° 0 mm 2 m/s 655 mmHg 57%
    13:00 +28°C° 0.7 mm 2 m/s 654 mmHg 59%
    14:00 +28°C° 0.7 mm 2 m/s 653 mmHg 62%
    15:00 +28°C° 0.7 mm 2 m/s 652 mmHg 64%
    16:00 +26°C° 0.4 mm 2 m/s 652 mmHg 71%
    17:00 +25°C° 0.4 mm 1 m/s 651 mmHg 79%
    18:00 +24°C° 0.4 mm 1 m/s 651 mmHg 86%
    19:00 +23°C° 0.4 mm 1 m/s 651 mmHg 87%
    20:00 +22°C° 0.4 mm 1 m/s 652 mmHg 88%
    21:00 +22°C° 0.4 mm 1 m/s 652 mmHg 89%
    22:00 +22°C° 0.3 mm 1 m/s 652 mmHg 88%
    23:00 +22°C° 0.3 mm 1 m/s 652 mmHg 87%

    24 Setembro, Segunda-feira

    Tempo Temperatura Precipitação Vento Pressão Humidade
    00:00 +21°C° 0.3 mm 1 m/s 652 mmHg 87%
    01:00 +21°C° 0.3 mm 1 m/s 651 mmHg 86%
    02:00 +21°C° 0.3 mm 1 m/s 651 mmHg 85%
    03:00 +21°C° 0.3 mm 1 m/s 651 mmHg 84%
    04:00 +21°C° 0.1 mm 1 m/s 651 mmHg 83%
    05:00 +21°C° 0.1 mm 1 m/s 651 mmHg 82%
    06:00 +20°C° 0.1 mm 1 m/s 651 mmHg 81%
    07:00 +22°C° 0 mm 1 m/s 652 mmHg 75%
    08:00 +24°C° 0 mm 1 m/s 653 mmHg 70%
    09:00 +26°C° 0 mm 1 m/s 653 mmHg 65%
    10:00 +27°C° 0.3 mm 2 m/s 653 mmHg 63%
    11:00 +27°C° 0.3 mm 2 m/s 653 mmHg 61%
    12:00 +28°C° 0.3 mm 3 m/s 653 mmHg 60%
    13:00 +28°C° 0.6 mm 3 m/s 652 mmHg 61%
    14:00 +28°C° 0.6 mm 3 m/s 651 mmHg 63%
    15:00 +28°C° 0.6 mm 3 m/s 650 mmHg 65%
    16:00 +26°C° 0.4 mm 2 m/s 650 mmHg 72%
    17:00 +25°C° 0.4 mm 2 m/s 650 mmHg 78%
    18:00 +24°C° 0.4 mm 1 m/s 649 mmHg 85%
    19:00 +23°C° 0.3 mm 1 m/s 650 mmHg 87%
    20:00 +22°C° 0.3 mm 1 m/s 650 mmHg 89%
    21:00 +21°C° 0.3 mm 1 m/s 651 mmHg 91%
    22:00 +21°C° 0.1 mm 1 m/s 651 mmHg 91%
    23:00 +21°C° 0.1 mm 1 m/s 651 mmHg 90%

    25 Setembro, Terça-feira

    Tempo Temperatura Precipitação Vento Pressão Humidade
    00:00 +21°C° 0.1 mm 1 m/s 650 mmHg 89%
    01:00 +21°C° 0 mm 1 m/s 650 mmHg 88%
    02:00 +20°C° 0 mm 1 m/s 650 mmHg 87%
    03:00 +20°C° 0 mm 1 m/s 649 mmHg 86%
    04:00 +20°C° 0 mm 1 m/s 649 mmHg 85%
    05:00 +20°C° 0 mm 1 m/s 649 mmHg 84%
    06:00 +20°C° 0 mm 1 m/s 649 mmHg 83%
    07:00 +22°C° 0 mm 1 m/s 650 mmHg 79%
    08:00 +24°C° 0 mm 1 m/s 651 mmHg 74%
    09:00 +26°C° 0 mm 1 m/s 652 mmHg 69%
    10:00 +26°C° 0.2 mm 2 m/s 652 mmHg 68%
    11:00 +27°C° 0.2 mm 2 m/s 652 mmHg 66%
    12:00 +27°C° 0.2 mm 2 m/s 652 mmHg 65%
    13:00 +27°C° 0.4 mm 2 m/s 651 mmHg 67%
    14:00 +27°C° 0.4 mm 2 m/s 650 mmHg 69%
    15:00 +27°C° 0.4 mm 2 m/s 649 mmHg 72%
    16:00 +26°C° 0.5 mm 2 m/s 649 mmHg 78%
    17:00 +25°C° 0.5 mm 2 m/s 649 mmHg 84%
    18:00 +23°C° 0.5 mm 1 m/s 649 mmHg 91%
    19:00 +23°C° 0.4 mm 1 m/s 649 mmHg 92%
    20:00 +23°C° 0.4 mm 1 m/s 649 mmHg 93%
    21:00 +20°C° 0.4 mm 0 m/s 650 mmHg 95%
    22:00 +20°C° 0.5 mm 0 m/s 650 mmHg 94%
    23:00 +22°C° 0.5 mm 1 m/s 650 mmHg 93%
    Mostrar mais